Regional Weather Roundup
Issued by NWS Sioux Falls, SD

Home | Current Version | Previous Version | Text Only | Print | Product List | Glossary On
Versions: 1 2 3 4 5 6 7 8 9 10 11 12 13 14 15 16 17 18 19 20 21 22 23 24 25 26 27 28 29 30 31 32 33 34 35 36 37 38 39 40 41 42 43 44 45 46 47 48 49 50
000
ASUS43 KFSD 090610
RWRFSD

WEATHER ROUNDUP FOR SE SOUTH DAKOTA/SW MINNESOTA/NW IOWA
NATIONAL WEATHER SERVICE SIOUX FALLS SD
1200 AM CST FRI DEC 09 2016

NOTE: "FAIR" INDICATES FEW OR NO CLOUDS BELOW 12,000 FEET WITH NO
SIGNIFICANT WEATHER AND OR OBSTRUCTIONS TO VISIBILITY.


SDZ038>040-050-052>070-090700-
SOUTHEAST SOUTH DAKOTA

CITY           SKY/WX    TMP DP  RH WIND       PRES   REMARKS
BROOKINGS      CLEAR      0  -3  87 NW7       30.56  WCI -13
CHAMBERLAIN    FLURRIES   6   2  85 N3        30.60F
6HR MIN TEMP:   6; 6HR MAX TEMP:  10;

HURON          CLEAR     -1  -5  82 NW8       30.63S WCI -15
6HR MIN TEMP:  -2; 6HR MAX TEMP:   7;

MADISON        FAIR       0   0 100 NW10      30.56S WCI -17
MITCHELL       CLEAR      1  -3  83 NW7       30.65S WCI -12
6HR MIN TEMP:   1; 6HR MAX TEMP:   9;

SIOUX FALLS    CLEAR      4   1  88 NW7       30.59S WCI  -8
6HR MIN TEMP:   4; 6HR MAX TEMP:  13;

WINNER         FAIR      -2  -7  79 CALM      30.57S
YANKTON        CLEAR      5   0  78 NW9       30.64R WCI  -9
$$

MNZ071-072-080-081-089-090-097-098-090700-
SOUTHWEST MINNESOTA

CITY           SKY/WX    TMP DP  RH WIND       PRES   REMARKS
FAIRMONT       FLURRIES  12   7  80 NW15      30.56S WCI  -4
JACKSON        PTCLDY     9   5  85 NW10      30.55S WCI  -6
LUVERNE        CLEAR      7   1  78 NW5       30.58S WCI  -2
MARSHALL       CLEAR      5   1  83 NW10      30.59S WCI -10
6HR MIN TEMP:   5; 6HR MAX TEMP:  13;

MONTEVIDEO     CLEAR      3   0  85 N10       30.61S WCI -12
PIPESTONE      CLEAR      5   1  85 W3        30.54S
REDWOOD FALLS  PTCLDY     8   2  76 NW13      30.58S WCI  -8
TRACY          CLEAR      8   4  85 NW10      30.57S WCI  -7
WINDOM         FLURRIES   9   5  85 NW10      30.55S WCI  -6
WORTHINGTON    CLEAR      6   2  83 NW9       30.55S WCI  -8
$$

IAZ001>003-012>014-020>022-031-032-NEZ013-014-SDZ071-090700-
NORTHWEST IOWA

CITY           SKY/WX    TMP DP  RH WIND       PRES   REMARKS
CHEROKEE       CLEAR     10   6  86 NW5       30.60S WCI   1
DENISON        CLEAR     10   7  85 NW12      30.59F WCI  -4
ESTHERVILLE    CLOUDY    10   6  84 NW12      30.55S WCI  -5
LE MARS        CLEAR      9   3  78 NW8       30.64R WCI  -4
ORANGE CITY    CLEAR      5   3  92 W3        30.59R
SHELDON        CLEAR      7   5  92 NW7       30.57R WCI  -5
SIOUX CITY     CLEAR     11   5  77 NW10      30.64S WCI  -3
6HR MIN TEMP:  11; 6HR MAX TEMP:  20;

SPENCER        CLEAR      7   4  87 W15       30.57F WCI -10
6HR MIN TEMP:   7; 6HR MAX TEMP:  15;

STORM LAKE     CLEAR      9   5  85 NW8       30.57S WCI  -4
$$

ABBREVIATIONS USED IN REMARKS
   TC - TEMPERATURE IN CELSIUS
  WCI - WIND CHILL INDEX
   HX - HEAT INDEX
  VSB - VISIBILITY




USA.gov is the U.S. government's official web portal to all federal, state and local government web resources and services.